Powrót do katalogu

STARLINK-2481

AktywnyŁącznośćVLEO
NORAD 48138·PAYLOAD·🇺🇸 United States

Wystrzelony Apr 7, 2021 z Cape Canaveral Space Force Station

Loading…

Następne Przeloty (najbliższe 24 godziny)

TLE

ŚwieżeSource: CelesTrak SupGP

Epoka: Sep 15, 2026, 02:42 UTC

1 48138C 21027AY  26258.11298611  .00071936  00000+0  23116-2 0  2586
2 48138  53.1607   6.2272 0001096  75.1932 299.8099 15.31690115    19

Śledź STARLINK-2481 w czasie rzeczywistym z AllMySat

Download on the App Store